[[{"header":{"parameterUnit":"m.s-1","parameterCategory":1,"la1":30.2991,"la2":30.254,"lo1":-89.0895,"lo2":-89.0444,"dy":0.0017,"dx":0.0017,"nx":28,"ny":28,"refTime":"2023-07-19T09:00:00:Z","depth":0,"parameterNumber":2,"parameterNumberName":"U-component_of_WINDS"},"data":[0,0,0,0,0,0,0,0,0,0,0,0,0,0,0,0,0,0,0,0,0,0,0,0,0,0,0,0,0,0,0,0,0,0,0,0,0,0,0,0,0,0,0,0,0,0,0,0,0,0,0,0,0,0,0,0,0,0,3.7804,3.7805,0,3.793,3.7932,3.7933,3.7905,3.7903,3.79,3.7898,3.8029,3.8035,3.804,0,0,0,0,0,0,0,0,0,0,0,0,0,3.7537,3.7542,3.7804,3.7805,3.7807,3.793,3.7932,3.7933,3.7905,3.7902,3.79,3.7897,3.8027,3.8034,3.8041,0,0,0,0,0,0,0,0,0,0,0,0,0,3.7657,3.7544,3.7803,3.7808,3.7809,3.793,3.7932,3.7934,3.7906,3.7902,3.7899,3.7895,3.8025,3.8033,3.8042,3.8166,0,0,3.8068,3.8072,0,0,0,0,0,0,0,0,3.765,3.7667,3.7805,3.7807,3.781,3.7898,3.7886,3.8012,3.7907,3.7869,3.7898,3.7894,3.7989,3.8,3.8031,3.8172,3.8178,3.8069,3.8074,3.8078,3.808,0,0,0,0,0,0,0,3.7642,3.7661,3.7854,3.7807,3.781,3.7803,3.7816,3.791,3.7948,3.7872,3.7871,3.7886,3.7989,3.8023,3.8034,3.818,3.8068,3.8076,3.8081,3.8085,3.8426,3.8429,0,0,0,0,0,0,3.7632,3.7655,3.785,3.7858,3.7719,3.7811,3.7825,3.7873,3.7946,3.7954,3.7889,3.7884,3.801,3.8024,3.8039,3.8186,3.8078,3.8086,3.8091,3.8422,3.8426,3.8431,0,0,0,0,0,0,3.7626,3.765,3.7845,3.7756,3.778,3.7819,3.7873,3.7878,3.7912,3.7959,3.7965,3.7917,3.8008,3.8027,3.8134,3.8191,3.8089,3.8097,3.8417,3.8423,3.8429,3.8484,0,0,0,0,0,0,3.7619,3.7648,3.7696,3.7757,3.7785,3.7938,3.7877,3.7883,3.7927,3.7922,3.7987,3.7994,3.8007,3.8121,3.8142,3.8201,3.8104,3.8412,3.842,3.8427,3.8478,3.8491,3.8503,0,0,0,0,0,3.7609,3.7708,3.7698,3.7722,3.7846,3.7941,3.7957,3.7969,3.7931,3.7979,3.8009,3.7992,3.8182,3.8132,3.8156,3.8218,3.8409,3.8418,3.8426,3.8472,3.8489,3.8503,0,0,0,0,0,0,3.7653,3.7716,3.7706,3.7827,3.7879,3.7936,3.7997,3.7987,3.8051,3.8044,3.8056,3.8071,3.8179,3.821,3.8154,3.834,3.829,3.8304,3.8316,3.8333,3.8345,3.8335,3.8111,0,0,0,0,0,3.7677,3.7749,3.78,3.7902,3.7928,3.7958,3.8001,3.8005,3.8059,3.8081,3.8119,3.8172,3.8243,3.829,3.8359,3.8482,3.8495,3.8536,3.8549,3.8559,3.8571,3.8635,3.8653,3.846,3.846,3.8459,0,0,3.7727,3.777,3.7815,3.7912,3.7952,3.8026,3.7977,3.8058,3.8112,3.8094,3.8196,3.8225,3.8286,3.8401,3.8453,3.8429,3.8627,3.8571,3.8579,3.8584,3.8646,3.8664,3.868,3.8466,3.8465,3.8464,0,0,3.7854,3.7896,3.7983,3.8024,3.8085,3.8105,3.8126,3.8184,3.8202,3.8305,3.8291,3.8357,3.848,3.8522,3.856,3.8701,3.8687,3.8724,3.879,3.8852,3.8867,3.8881,3.8928,3.8945,3.8735,3.8735,3.8735,0,3.7908,3.8019,3.803,3.8111,3.8152,3.8138,3.8225,3.8265,3.8346,3.8375,3.8347,3.8499,3.8539,3.8662,3.8696,3.8728,3.8751,3.8715,3.8864,3.8878,3.8891,3.8936,3.8954,3.8739,3.8739,3.8738,3.8738,0,3.8081,3.8157,3.8221,3.8297,3.8347,3.8431,3.8453,3.8502,3.8502,3.8524,3.8627,3.8674,3.875,3.878,3.8782,3.8903,3.8885,3.8861,3.881,3.8913,3.8955,3.8973,3.8744,3.8743,3.8742,3.8741,0,0,3.824,3.8319,3.8342,3.8375,3.8441,3.85,3.8583,3.8656,3.8696,3.8753,3.8821,3.8924,3.8901,3.8944,3.895,3.9006,3.911,3.8974,3.8975,3.8995,3.9242,3.9258,3.9278,3.9102,3.9105,3.9108,3.9236,0,3.8371,3.8516,3.8526,3.8657,3.8726,3.8713,3.8784,3.8832,3.8854,3.8916,3.8941,3.9012,3.8978,3.9003,3.9058,3.9086,3.9159,3.9077,3.9164,3.9167,3.9146,3.9301,3.9319,3.9437,3.9253,3.9256,3.9258,0,3.8543,3.8602,3.8739,3.8792,3.8821,3.8886,3.8952,3.9012,3.9065,3.9077,3.9124,3.9122,3.9205,3.9152,3.9267,3.921,3.9247,3.9266,3.9271,3.9277,3.9217,3.9309,3.9476,3.9493,3.9285,3.9283,3.9281,0,3.8641,3.8755,3.8851,3.888,3.8945,3.899,3.9019,3.9069,3.9111,3.917,3.9197,3.9265,3.9301,3.9354,3.9369,3.933,3.9482,3.9431,3.9493,3.9492,3.9524,3.9521,3.9696,3.9552,3.9552,3.9551,3.9551,0,3.8784,3.8868,3.8895,3.8953,3.9046,3.9058,3.9149,3.9175,3.9219,3.9282,3.9276,3.9335,3.9353,3.9415,3.9428,3.9519,3.9537,3.9548,3.9549,3.9547,3.9545,3.9569,3.956,3.9556,3.9555,3.9554,3.9553,0,3.8908,3.893,3.9033,3.9086,3.9101,3.9166,3.9211,3.9267,3.9287,3.9367,3.9386,3.9418,3.9491,3.9512,3.96,3.9609,3.9714,3.971,3.9695,3.9695,3.9753,3.9746,3.9948,3.9973,3.9815,3.9817,3.9818,0,3.8997,3.906,3.9119,3.916,3.9191,3.9258,3.93,3.9314,3.9358,3.9422,3.9469,3.9541,3.9598,3.9714,3.9745,3.9812,3.9807,3.9873,3.9817,3.9811,3.9805,3.9799,3.9804,3.9883,3.9885,3.9886,3.9887,0,3.9151,3.9158,3.9219,3.9283,3.9334,3.9386,3.9435,3.9469,3.949,3.954,3.9613,3.9658,3.9746,3.9816,3.9882,3.9912,3.9903,3.9905,3.9922,3.9918,3.9906,3.991,3.9721,3.99,3.9899,3.9898,3.9897,3.9896,3.9258,3.9312,3.9361,3.9428,3.9467,3.9513,3.9567,3.9593,3.9654,3.9726,3.9731,3.9809,3.9859,3.9947,3.998,4.0041,4.0022,4.0048,4.0054,4.0059,4.0062,3.9898,4.0054,4.0054,4.0053,4.0053,4.0053,0,3.9408,3.9438,3.9501,3.9569,3.9622,3.9608,3.9662,3.9706,3.9775,3.9822,3.9878,3.996,4.0028,4.0064,4.013,4.0172,4.0169,4.0189,4.0184,4.0191,4.0077,4.0054,4.019,4.019,4.019,4.019,4.0189,4.0189,3.9492,3.9582,3.9595,3.9703,3.9733,3.9809,3.984,3.9882,3.9919,4.0011,4.0066,4.0089,4.0131,4.02,4.0261,4.0269,4.0293,4.0314,4.032,4.0213,4.0199,4.0186,4.0164,4.032,4.032,4.0428,4.0429,4.043]},{"header":{"parameterUnit":"m.s-1","parameterCategory":1,"la1":30.2991,"la2":30.254,"lo1":-89.0895,"lo2":-89.0444,"dy":0.0017,"dx":0.0017,"nx":28,"ny":28,"refTime":"2023-07-19T09:00:00:Z","depth":0,"parameterNumber":3,"parameterNumberName":"V-component_of_WINDS"},"data":[0,0,0,0,0,0,0,0,0,0,0,0,0,0,0,0,0,0,0,0,0,0,0,0,0,0,0,0,0,0,0,0,0,0,0,0,0,0,0,0,0,0,0,0,0,0,0,0,0,0,0,0,0,0,0,0,0,0,2.5195,2.5197,0,2.5388,2.539,2.5392,2.5433,2.5431,2.543,2.5429,2.5626,2.5633,2.5639,0,0,0,0,0,0,0,0,0,0,0,0,0,2.4862,2.4868,2.5195,2.5197,2.52,2.5387,2.539,2.5392,2.5433,2.5431,2.543,2.5428,2.5624,2.5632,2.564,0,0,0,0,0,0,0,0,0,0,0,0,0,2.5026,2.487,2.5195,2.5243,2.5249,2.5387,2.539,2.5393,2.5433,2.5431,2.5429,2.5427,2.5621,2.5631,2.5641,2.5744,0,0,2.5671,2.5675,0,0,0,0,0,0,0,0,2.5017,2.5038,2.5233,2.524,2.5247,2.5384,2.5345,2.5511,2.5434,2.5363,2.5429,2.5426,2.5547,2.5563,2.5604,2.5754,2.5762,2.5672,2.5678,2.5682,2.5685,0,0,0,0,0,0,0,2.5005,2.503,2.5271,2.5236,2.5244,2.5255,2.5275,2.5377,2.5465,2.5369,2.5373,2.5395,2.5551,2.5594,2.5609,2.5765,2.5672,2.568,2.5686,2.569,2.6008,2.6011,0,0,0,0,0,0,2.4986,2.502,2.5265,2.5277,2.5124,2.5262,2.5286,2.5342,2.5464,2.5481,2.5397,2.5396,2.5579,2.5597,2.5616,2.5745,2.5682,2.5691,2.5697,2.6006,2.6009,2.6012,0,0,0,0,0,0,2.4978,2.5007,2.5257,2.515,2.5182,2.527,2.5333,2.5347,2.5391,2.5485,2.55,2.5425,2.5578,2.5602,2.5712,2.5752,2.5696,2.5705,2.6003,2.6007,2.601,2.6004,0,0,0,0,0,0,2.4969,2.5004,2.5045,2.515,2.5188,2.535,2.5336,2.5352,2.5408,2.5409,2.5516,2.5531,2.5578,2.5697,2.5722,2.5765,2.5712,2.6,2.6005,2.6009,2.6001,2.6007,2.6012,0,0,0,0,0,2.4957,2.5035,2.5046,2.5076,2.524,2.5352,2.5374,2.5426,2.5411,2.5452,2.5512,2.5528,2.5744,2.5708,2.5736,2.5783,2.5997,2.6003,2.6009,2.5998,2.6006,2.6012,0,0,0,0,0,0,2.4933,2.505,2.5064,2.5179,2.5255,2.5359,2.5413,2.5432,2.5515,2.5512,2.5573,2.5597,2.5703,2.5754,2.5712,2.5889,2.587,2.5881,2.5852,2.586,2.5865,2.5851,2.5721,0,0,0,0,0,2.4941,2.5022,2.512,2.5213,2.525,2.5325,2.5375,2.5409,2.549,2.5523,2.5591,2.567,2.5755,2.581,2.5894,2.6008,2.6031,2.6054,2.6059,2.6064,2.6073,2.6136,2.6147,2.603,2.603,2.603,0,0,2.4959,2.5033,2.508,2.521,2.5273,2.5355,2.5352,2.5439,2.5501,2.5536,2.5644,2.5697,2.5788,2.59,2.5953,2.5946,2.611,2.6071,2.6073,2.6081,2.6143,2.6154,2.6164,2.6034,2.6033,2.6033,0,0,2.5033,2.5097,2.5181,2.5244,2.5339,2.5388,2.5408,2.5509,2.5545,2.5654,2.5682,2.5756,2.5902,2.5966,2.6018,2.6114,2.6132,2.614,2.617,2.623,2.624,2.6248,2.6282,2.6294,2.6149,2.6149,2.6149,0,2.5043,2.5169,2.5222,2.5308,2.5364,2.5399,2.5483,2.5542,2.566,2.5697,2.5688,2.5871,2.5935,2.6062,2.6086,2.6126,2.6151,2.6129,2.6234,2.6243,2.6252,2.6285,2.6298,2.6149,2.6149,2.6149,2.6149,0,2.5176,2.5262,2.5318,2.5431,2.5493,2.5578,2.5643,2.57,2.5727,2.5777,2.5887,2.5965,2.6065,2.6097,2.6125,2.6228,2.6221,2.6222,2.6204,2.6262,2.6295,2.6308,2.615,2.615,2.615,2.615,0,0,2.5242,2.5381,2.5401,2.5452,2.5559,2.5627,2.5713,2.581,2.5857,2.5937,2.601,2.6133,2.6134,2.6192,2.6228,2.6281,2.6352,2.6276,2.6279,2.6287,2.647,2.6468,2.6482,2.6364,2.6367,2.6369,2.6462,0,2.5329,2.5484,2.5534,2.5663,2.5743,2.5777,2.5852,2.5925,2.5974,2.6049,2.6102,2.6188,2.6183,2.6219,2.6273,2.6332,2.639,2.6326,2.6433,2.6436,2.6409,2.6499,2.6498,2.6582,2.6475,2.6477,2.6479,0,2.5452,2.5533,2.567,2.5766,2.5801,2.5868,2.596,2.6032,2.6115,2.6147,2.6211,2.6242,2.6333,2.6309,2.6435,2.639,2.6437,2.6472,2.6477,2.6489,2.6461,2.6514,2.6611,2.6623,2.6499,2.6497,2.6496,0,2.5486,2.5629,2.5729,2.5772,2.5886,2.5932,2.5982,2.6064,2.6118,2.6199,2.6236,2.6326,2.6376,2.6445,2.6499,2.6476,2.662,2.66,2.6648,2.6647,2.6677,2.6675,2.6783,2.6707,2.6707,2.6706,2.6706,0,2.5578,2.5661,2.5746,2.5808,2.5901,2.5957,2.6047,2.6099,2.6171,2.6243,2.6278,2.6344,2.6412,2.6488,2.653,2.6628,2.665,2.6678,2.6688,2.6675,2.6671,2.6706,2.6702,2.671,2.6709,2.6708,2.6708,0,2.5632,2.5692,2.5804,2.5903,2.5929,2.5993,2.6078,2.6139,2.6188,2.6279,2.6303,2.6381,2.6472,2.6532,2.6648,2.6677,2.6783,2.6792,2.6755,2.676,2.6804,2.6799,2.6939,2.696,2.6869,2.687,2.6871,0,2.5687,2.5751,2.5856,2.5907,2.5956,2.6038,2.6094,2.6151,2.6208,2.6307,2.6356,2.6449,2.6526,2.6669,2.6736,2.6825,2.6836,2.6879,2.685,2.6834,2.6837,2.6832,2.6839,2.6884,2.6885,2.6885,2.6886,0,2.5778,2.5804,2.5884,2.5973,2.6039,2.6112,2.6186,2.6225,2.6295,2.6357,2.645,2.651,2.6628,2.672,2.6815,2.6866,2.6888,2.6894,2.691,2.6897,2.6872,2.6886,2.6767,2.6891,2.689,2.689,2.689,2.689,2.5834,2.5892,2.5975,2.6062,2.6123,2.6191,2.6252,2.6309,2.6387,2.6488,2.6517,2.6613,2.6695,2.6824,2.6877,2.6953,2.6949,2.6971,2.6977,2.6982,2.6982,2.686,2.697,2.697,2.697,2.697,2.697,0,2.5926,2.5981,2.606,2.6162,2.623,2.6244,2.6326,2.6382,2.6466,2.654,2.6615,2.6721,2.681,2.6883,2.6975,2.7022,2.7034,2.7044,2.7041,2.7052,2.6981,2.6958,2.7032,2.7032,2.7032,2.7032,2.7032,2.7032,2.5983,2.6081,2.6117,2.6247,2.6301,2.6396,2.6441,2.6503,2.6562,2.6679,2.6753,2.68,2.6874,2.697,2.7052,2.7071,2.7103,2.7111,2.7132,2.7064,2.7057,2.7051,2.7029,2.7118,2.7118,2.7198,2.7198,2.7199]}]]